WX8ASH-13 Weather Reports


time (UTC)temp
C
wind
direction
speed
KPH
gust
KPH
rain 1hr
cm
rain 24hr
cm
rain mn
cm
humidity
%
barometer
mb
20260505114530 14 255 0.0 17.7 0.03 0.03 0.03 86 1006.7
20260505114033 14 284 6.4 17.7 0.03 0.03 0.03 86 1006.4
20260505113531 14 243 11.3 17.7 0.03 0.03 0.03 87 1006.3
20260505113033 14 150 8.0 17.7 0.03 0.03 0.03 87 1006.5
20260505112531 14 290 1.6 16.1 0.03 0.03 0.03 87 1006.4
20260505112030 14 214 3.2 16.1 0.03 0.03 0.03 87 1006.5
20260505111532 14 294 6.4 16.1 0.03 0.03 0.03 87 1006.7
20260505111030 14 218 6.4 11.3 0.03 0.03 0.03 86 1006.7
20260505110532 14 291 1.6 11.3 0.03 0.03 0.03 87 1006.6
20260505102028 16 293 6.4 19.3 0.00 0.00 0.00 76 1006.7
20260505101531 16 308 4.8 19.3 0.00 0.00 0.00 73 1006.5
20260505101028 16 248 3.2 19.3 0.00 0.00 0.00 73 1006.6
20260505100530 16 243 11.3 14.5 0.00 0.00 0.00 73 1006.6
20260505100029 16 256 0.0 17.7 0.00 0.00 0.00 73 1006.5
20260505095527 16 302 4.8 17.7 0.00 0.00 0.00 73 1006.5
20260505095030 16 264 3.2 17.7 0.00 0.00 0.00 73 1006.4
20260505094527 17 294 1.6 14.5 0.00 0.00 0.00 72 1006.3
20260505094030 17 293 4.8 14.5 0.00 0.00 0.00 72 1006.4
20260505093527 17 276 9.7 14.5 0.00 0.00 0.00 72 1006.4
20260505093033 17 273 4.8 16.1 0.00 0.00 0.00 72 1006.4
20260505092526 17 291 3.2 19.3 0.00 0.00 0.00 71 1006.4
20260505092029 17 301 9.7 19.3 0.00 0.00 0.00 71 1006.3
20260505091526 17 259 1.6 19.3 0.00 0.00 0.00 70 1006.3
20260505091029 17 276 4.8 17.7 0.00 0.00 0.00 70 1006.2
20260505090526 17 276 3.2 33.8 0.00 0.00 0.00 69 1006.1
20260505090030 17 294 6.4 33.8 0.00 0.00 0.00 69 1006.1
20260505085525 17 288 12.9 33.8 0.00 0.00 0.00 68 1005.9
20260505085026 17 290 4.8 19.3 0.00 0.00 0.00 68 1005.9
20260505084527 18 301 1.6 19.3 0.00 0.00 0.00 68 1005.8
20260505084025 18 281 3.2 20.9 0.00 0.00 0.00 67 1005.7
20260505083528 18 259 9.7 20.9 0.00 0.00 0.00 67 1005.7
20260505083025 18 249 1.6 20.9 0.00 0.00 0.00 66 1005.6
20260505082527 18 281 9.7 19.3 0.00 0.00 0.00 65 1005.7
20260505082024 18 235 3.2 19.3 0.00 0.00 0.00 64 1005.5
20260505081527 19 270 8.0 25.7 0.00 0.00 0.00 63 1005.5
20260505081024 19 93 1.6 25.7 0.00 0.00 0.00 62 1005.5
20260505080526 19 222 1.6 25.7 0.00 0.00 0.00 61 1005.5
20260505080024 19 273 14.5 38.6 0.00 0.00 0.00 61 1005.5
20260505075524 19 260 4.8 38.6 0.00 0.00 0.00 61 1005.5
20260505075026 19 257 6.4 38.6 0.00 0.00 0.00 62 1005.4
20260505074523 19 295 1.6 30.6 0.00 0.00 0.00 62 1005.2
20260505074025 19 330 4.8 30.6 0.00 0.00 0.00 61 1005.2
20260505073523 19 301 3.2 14.5 0.00 0.00 0.00 62 1005.0
20260505073026 19 293 4.8 16.1 0.00 0.00 0.00 61 1005.0
20260505072523 19 302 0.0 16.1 0.00 0.00 0.00 62 1004.9
20260505072023 19 309 3.2 17.7 0.00 0.00 0.00 62 1004.8
20260505071525 18 277 3.2 17.7 0.00 0.00 0.00 63 1004.9
20260505071022 18 309 4.8 17.7 0.00 0.00 0.00 63 1004.8
20260505070523 18 321 3.2 17.7 0.00 0.00 0.00 64 1004.8
20260505070024 18 274 6.4 19.3 0.00 0.00 0.00 65 1004.7
20260505065522 18 236 8.0 19.3 0.00 0.00 0.00 65 1004.7
20260505065022 18 187 0.0 19.3 0.00 0.00 0.00 65 1004.7
20260505064524 18 295 1.6 16.1 0.00 0.00 0.00 65 1004.8
20260505064021 18 238 9.7 17.7 0.00 0.00 0.00 66 1004.8
20260505063522 18 225 0.0 17.7 0.00 0.00 0.00 66 1004.9
20260505063025 18 232 6.4 17.7 0.00 0.00 0.00 66 1005.0
20260505062521 18 298 6.4 17.7 0.00 0.00 0.00 66 1004.9
20260505062024 18 231 3.2 17.7 0.00 0.00 0.00 67 1005.0
20260505061521 18 283 6.4 19.3 0.00 0.00 0.00 67 1005.0
20260505061020 18 267 0.0 19.3 0.00 0.00 0.00 67 1005.0
20260505060524 18 238 6.4 19.3 0.00 0.00 0.00 67 1004.9
20260505060021 18 242 4.8 16.1 0.00 0.00 0.00 67 1005.2
20260505055521 18 214 1.6 17.7 0.00 0.00 0.00 67 1005.2
20260505055022 18 322 0.0 17.7 0.00 0.00 0.00 67 1005.2
20260505054520 18 231 1.6 17.7 0.00 0.00 0.00 67 1005.4
20260505054022 18 193 0.0 16.1 0.00 0.00 0.00 68 1005.5
20260505053520 18 214 3.2 16.1 0.00 0.00 0.00 68 1005.5
20260505053020 18 256 1.6 16.1 0.00 0.00 0.00 68 1005.6
20260505052522 18 225 6.4 16.1 0.00 0.00 0.00 68 1005.7
20260505052019 18 302 0.0 22.5 0.00 0.00 0.00 69 1005.7
20260505051520 18 284 6.4 22.5 0.00 0.00 0.00 69 1005.8
20260505051022 18 235 3.2 22.5 0.00 0.00 0.00 69 1005.8
20260505050519 18 285 4.8 17.7 0.00 0.00 0.00 69 1005.8
20260505041517 18 252 0.0 11.3 0.00 0.00 0.00 71 1006.0
20260505041019 17 201 1.6 11.3 0.00 0.00 0.00 71 1006.0
20260505040518 17 278 0.0 9.7 0.00 0.00 0.00 72 1006.0
20260505040017 18 232 0.0 12.9 0.00 0.00 0.00 71 1005.9
20260505035517 17 233 0.0 12.9 0.00 0.00 0.00 71 1006.0
20260505035019 18 153 0.0 9.7 0.00 0.00 0.00 71 1006.1
20260505034516 18 271 0.0 9.7 0.00 0.00 0.00 71 1006.1
20260505034016 18 218 4.8 12.9 0.00 0.00 0.00 70 1006.0
20260505033517 18 235 3.2 17.7 0.00 0.00 0.00 70 1006.1
20260505033016 18 183 0.0 17.7 0.00 0.00 0.00 70 1006.1
20260505032516 18 238 1.6 19.3 0.00 0.00 0.00 71 1006.1
20260505032016 18 191 0.0 19.3 0.00 0.00 0.00 71 1006.1
20260505031517 18 260 0.0 19.3 0.00 0.00 0.00 71 1006.1
20260505031016 18 253 0.0 20.9 0.00 0.00 0.00 71 1006.2
20260505030515 18 163 6.4 20.9 0.00 0.00 0.00 71 1006.1
20260505030047 18 222 8.0 20.9 0.00 0.00 0.00 71 1006.2
20260505025518 18 195 8.0 20.9 0.00 0.00 0.00 71 1006.3
20260505025015 18 191 12.9 11.3 0.00 0.00 0.00 71 1006.3
20260505024515 18 226 1.6 14.5 0.00 0.00 0.00 71 1006.3
20260505024017 18 295 3.2 14.5 0.00 0.00 0.00 71 1006.3
20260505023544 18 246 1.6 14.5 0.00 0.00 0.00 71 1006.1
20260505023047 18 228 1.6 14.5 0.00 0.00 0.00 71 1006.2
20260505022544 18 158 0.0 14.5 0.00 0.00 0.00 71 1006.2
20260505022047 18 229 9.7 14.5 0.00 0.00 0.00 70 1006.2
20260505021544 18 239 6.4 14.5 0.00 0.00 0.00 70 1006.1
20260505021044 18 278 0.0 12.9 0.00 0.00 0.00 69 1006.1
20260505020544 18 160 1.6 12.9 0.00 0.00 0.00 69 1006.2
20260505020044 18 283 6.4 11.3 0.00 0.00 0.00 68 1006.1
20260505015545 18 148 0.0 16.1 0.00 0.00 0.00 68 1006.0
20260505015043 18 238 4.8 16.1 0.00 0.00 0.00 68 1006.1
20260505014543 18 231 3.2 16.1 0.00 0.00 0.00 67 1006.1
20260505014045 18 262 0.0 14.5 0.00 0.00 0.00 66 1006.2
20260505013542 18 176 1.6 14.5 0.00 0.00 0.00 66 1006.2
20260505013044 18 266 0.0 14.5 0.00 0.00 0.00 65 1006.2
20260505012542 18 129 0.0 12.9 0.00 0.00 0.00 65 1006.3
20260505012043 18 231 4.8 11.3 0.00 0.00 0.00 65 1006.3
20260505011544 18 215 0.0 11.3 0.00 0.00 0.00 64 1006.2
20260505011041 18 231 0.0 9.7 0.00 0.00 0.00 64 1006.2
20260505010542 18 285 0.0 12.9 0.00 0.00 0.00 63 1006.2
20260505010046 18 273 0.0 12.9 0.00 0.00 0.00 63 1006.1
20260505005541 19 263 9.7 12.9 0.00 0.00 0.00 63 1006.1
20260505005042 19 203 8.0 12.9 0.00 0.00 0.00 62 1006.1
20260505004543 19 225 0.0 17.7 0.00 0.00 0.00 62 1006.0
20260505004041 19 215 0.0 17.7 0.00 0.00 0.00 61 1006.0
20260505003541 19 219 3.2 17.7 0.00 0.00 0.00 61 1006.1
20260505003041 20 285 3.2 16.1 0.00 0.00 0.00 60 1006.0
20260505002542 20 249 0.0 22.5 0.00 0.00 0.00 59 1006.0
20260505002042 20 252 3.2 22.5 0.00 0.00 0.00 59 1005.9
20260505001540 20 255 3.2 25.7 0.00 0.00 0.00 58 1005.9
20260505001040 20 273 3.2 25.7 0.00 0.00 0.00 57 1005.9
20260505000540 20 245 9.7 25.7 0.00 0.00 0.00 56 1005.9
20260505000041 20 207 8.0 24.1 0.00 0.00 0.00 55 1005.8
20260504235540 21 277 8.0 24.1 0.00 0.00 0.00 55 1005.7
20260504235039 21 277 8.0 22.5 0.00 0.00 0.00 53 1005.6
20260504234539 21 242 1.6 22.5 0.00 0.00 0.00 52 1005.4
20260504234041 21 278 8.0 22.5 0.00 0.00 0.00 52 1005.2
20260504233539 21 273 3.2 19.3 0.00 0.00 0.00 52 1005.2
20260504233039 21 214 6.4 16.1 0.00 0.00 0.00 53 1005.0
20260504232541 21 280 4.8 17.7 0.00 0.00 0.00 52 1004.9
20260504232039 21 304 0.0 17.7 0.00 0.00 0.00 53 1004.9
20260504231538 21 280 1.6 17.7 0.00 0.00 0.00 52 1004.9
20260504231038 21 264 0.0 16.1 0.00 0.00 0.00 52 1005.0
20260504230538 21 269 1.6 17.7 0.00 0.00 0.00 53 1005.2
20260504230040 21 271 6.4 24.1 0.00 0.00 0.00 53 1005.4
20260504225538 21 277 3.2 24.1 0.00 0.00 0.00 54 1005.4
20260504225038 21 276 4.8 24.1 0.00 0.00 0.00 55 1005.4
20260504224538 21 225 4.8 17.7 0.00 0.00 0.00 55 1005.6
20260504224038 21 295 11.3 27.4 0.00 0.00 0.00 55 1005.7
20260504223538 21 256 3.2 27.4 0.00 0.00 0.00 54 1005.7
20260504223038 22 277 14.5 27.4 0.00 0.00 0.00 53 1005.6
20260504222537 22 273 0.0 35.4 0.00 0.00 0.00 55 1005.7
20260504222036 21 273 9.7 35.4 0.00 0.00 0.00 54 1005.6
20260504221537 21 276 0.0 35.4 0.00 0.00 0.00 55 1005.7
20260504221037 22 284 14.5 24.1 0.00 0.00 0.00 54 1005.8
20260504220538 22 297 11.3 24.1 0.00 0.00 0.00 54 1005.7
20260504220037 22 259 6.4 29.0 0.00 0.00 0.00 53 1005.8
20260504215536 22 325 3.2 43.5 0.00 0.00 0.00 55 1005.9
20260504215036 22 295 4.8 43.5 0.00 0.00 0.00 53 1005.8
20260504214536 22 198 29.0 43.5 0.00 0.00 0.00 52 1005.9
20260504214037 22 273 8.0 37.0 0.00 0.00 0.00 53 1005.8
20260504213536 22 235 0.0 37.0 0.00 0.00 0.00 53 1005.7
20260504213036 22 215 6.4 35.4 0.00 0.00 0.00 54 1005.7
20260504212535 22 257 6.4 35.4 0.00 0.00 0.00 54 1005.7
20260504212035 22 238 16.1 35.4 0.00 0.00 0.00 53 1005.8
20260504211536 22 280 1.6 25.7 0.00 0.00 0.00 54 1005.7
20260504211035 22 262 0.0 20.9 0.00 0.00 0.00 54 1005.7
20260504210534 22 267 6.4 20.9 0.00 0.00 0.00 54 1005.7
20260504210034 22 236 1.6 30.6 0.00 0.00 0.00 52 1005.7
20260504205534 22 297 8.0 30.6 0.00 0.00 0.00 53 1005.7
20260504205034 22 250 6.4 30.6 0.00 0.00 0.00 54 1005.8
20260504204534 22 252 3.2 24.1 0.00 0.00 0.00 54 1005.9
20260504204034 22 246 1.6 35.4 0.00 0.00 0.00 53 1006.1
20260504203534 22 267 8.0 35.4 0.00 0.00 0.00 53 1006.1
20260504203035 22 225 0.0 35.4 0.00 0.00 0.00 55 1006.1
20260504202534 22 162 20.9 27.4 0.00 0.00 0.00 54 1006.2
20260504202033 22 288 9.7 17.7 0.00 0.00 0.00 53 1006.3
20260504201533 22 305 12.9 17.7 0.00 0.00 0.00 53 1006.3
20260504201033 22 284 4.8 17.7 0.00 0.00 0.00 53 1006.3
20260504200533 22 325 3.2 14.5 0.00 0.00 0.00 52 1006.4
20260504200033 22 283 4.8 14.5 0.00 0.00 0.00 53 1006.4
20260504195532 22 238 4.8 14.5 0.00 0.00 0.00 53 1006.4
20260504195032 22 267 0.0 14.5 0.00 0.00 0.00 54 1006.5
20260504194532 22 255 3.2 14.5 0.00 0.00 0.00 53 1006.5
20260504194032 22 269 9.7 16.1 0.00 0.00 0.00 53 1006.7
20260504193532 22 290 6.4 16.1 0.00 0.00 0.00 52 1006.8
20260504193032 22 201 3.2 16.1 0.00 0.00 0.00 53 1006.8
20260504192534 22 281 4.8 14.5 0.00 0.00 0.00 51 1006.8
20260504192033 22 267 0.0 20.9 0.00 0.00 0.00 53 1006.8
20260504191532 22 302 6.4 20.9 0.00 0.00 0.00 51 1006.9
20260504191032 22 277 4.8 20.9 0.00 0.00 0.00 52 1006.9
20260504190532 22 291 0.0 20.9 0.00 0.00 0.00 51 1006.9
20260504190031 22 257 1.6 20.9 0.00 0.00 0.00 51 1007.0
20260504185531 22 243 6.4 24.1 0.00 0.00 0.00 52 1007.1
20260504185031 22 252 8.0 24.1 0.00 0.00 0.00 54 1007.1
20260504184531 22 287 4.8 24.1 0.00 0.00 0.00 53 1007.2
20260504184031 22 259 11.3 20.9 0.00 0.00 0.00 52 1007.6
20260504183530 22 273 1.6 17.7 0.00 0.00 0.00 54 1007.7
20260504183031 22 250 11.3 17.7 0.00 0.00 0.00 53 1007.7
20260504182530 22 101 0.0 17.7 0.00 0.00 0.00 55 1007.7
20260504182031 22 218 1.6 17.7 0.00 0.00 0.00 56 1007.8
20260504181531 22 287 6.4 17.7 0.00 0.00 0.00 54 1007.8
20260504181030 21 149 0.0 14.5 0.00 0.00 0.00 56 1007.7
20260504180530 21 285 9.7 24.1 0.00 0.00 0.00 56 1007.7
20260504180029 21 291 4.8 24.1 0.00 0.00 0.00 55 1007.8
20260504175529 21 212 0.0 24.1 0.00 0.00 0.00 54 1007.8
20260504175029 21 187 8.0 20.9 0.00 0.00 0.00 55 1007.9
20260504174528 21 263 1.6 20.9 0.00 0.00 0.00 57 1008.0
20260504174028 21 148 1.6 20.9 0.00 0.00 0.00 56 1008.0
20260504173528 21 293 8.0 19.3 0.00 0.00 0.00 55 1008.0
20260504173028 21 273 0.0 19.3 0.00 0.00 0.00 55 1008.1
20260504172528 21 240 3.2 19.3 0.00 0.00 0.00 55 1008.1
20260504172028 21 295 3.2 19.3 0.00 0.00 0.00 55 1008.1
20260504171528 21 253 4.8 19.3 0.00 0.00 0.00 56 1008.2
20260504171028 20 229 3.2 19.3 0.00 0.00 0.00 56 1008.2
20260504170527 20 256 1.6 19.3 0.00 0.00 0.00 55 1008.3
20260504151024 18 190 4.8 16.1 0.00 0.00 0.00 60 1009.0
20260504150524 17 245 4.8 19.3 0.00 0.00 0.00 59 1009.1
20260504141023 15 253 0.0 17.7 0.00 0.00 0.00 63 1009.4
20260504140522 15 293 3.2 12.9 0.00 0.00 0.00 65 1009.6
20260504130520 13 252 1.6 11.3 0.00 0.00 0.00 67 1010.0